Location: Caracas
(10.5033°N, 66.8422°W)
Time: 08:06:28
(UTC-04:00)

Vanguard 1 - All Passes

Search period start: 21 November 2017 00:00
Search period end: 01 December 2017 00:00
Orbit: 650 x 3834 km, 34.2° (Epoch: 17 November)

Date Brightness Start Highest point End Pass type
(mag) Time Alt. Az. Time Alt. Az. Time Alt. Az.
21 Nov - 00:45:27 10° WNW 00:54:10 47° SSW 01:09:55 10° SE visible
21 Nov - 03:11:51 10° WSW 03:21:08 18° SSW 03:33:13 10° SSE visible
21 Nov - 08:27:03 10° S 08:32:21 11° SSE 08:37:11 10° SSE daylight
21 Nov - 10:47:22 10° SSW 11:01:33 30° SSE 11:10:24 10° E daylight
21 Nov - 13:12:25 10° SW 13:25:16 89° SSE 13:32:00 10° NE daylight
21 Nov - 15:41:26 10° WNW 15:45:55 17° NW 15:49:24 10° N daylight
21 Nov - 20:29:50 10° N 20:32:12 13° NNE 20:34:58 10° ENE night (unlit)
21 Nov - 22:46:24 10° NW 22:52:53 75° NE 23:05:04 10° ESE night (unlit)
22 Nov - 01:07:14 10° W 01:16:00 35° SSW 01:30:44 10° SSE visible
22 Nov - 03:37:14 10° SW 03:44:15 13° SSW 03:52:31 10° S visible
22 Nov - 08:45:25 10° S 08:55:46 15° SSE 09:04:10 10° SE daylight
22 Nov - 11:08:01 10° SSW 11:23:32 40° SSE 11:32:27 10° E daylight
22 Nov - 13:34:19 10° WSW 13:46:21 64° NW 13:52:49 10° NE daylight
22 Nov - 16:05:50 10° NW 16:07:11 11° NNW 16:08:27 10° NNW daylight
22 Nov - 20:49:29 10° NNW 20:53:23 20° NE 20:58:38 10° E night (unlit)
22 Nov - 23:07:18 10° WNW 23:14:01 78° SW 23:26:47 10° SE visible
23 Nov - 01:29:32 10° WSW 01:38:04 26° SSW 01:51:13 10° SSE visible
23 Nov - 09:05:07 10° SSW 09:18:43 21° SSE 09:28:45 10° ESE daylight
23 Nov - 11:28:59 10° SW 11:45:17 54° SSE 11:54:04 10° ENE daylight
23 Nov - 13:56:38 10° WSW 14:07:20 44° NW 14:13:27 10° NE daylight
23 Nov - 21:09:42 10° NNW 21:14:23 31° NE 21:21:29 10° E night (unlit)
23 Nov - 23:28:27 10° WNW 23:35:21 55° SSW 23:48:06 10° SE visible
24 Nov - 01:52:38 10° WSW 02:00:24 19° SSW 02:11:16 10° SSE visible
24 Nov - 07:07:23 10° S 07:09:47 10° SSE 07:12:08 10° SSE daylight
24 Nov - 09:25:17 10° SSW 09:41:16 27° SSE 09:52:06 10° E daylight
24 Nov - 11:50:18 10° SW 12:06:48 72° SE 12:15:20 10° ENE daylight
24 Nov - 14:19:23 10° W 14:28:19 30° NW 14:33:54 10° NNE daylight
24 Nov - 21:30:10 10° NW 21:35:18 49° NE 21:43:48 10° ESE night (unlit)
24 Nov - 23:49:56 10° W 23:56:54 39° SSW 00:09:03 10° SSE visible
25 Nov - 02:17:03 10° SW 02:23:05 14° SSW 02:30:33 10° S visible
25 Nov - 07:24:04 10° S 07:33:43 14° SSE 07:42:18 10° SE daylight
25 Nov - 09:45:48 10° SSW 10:03:32 36° SSE 10:14:37 10° E daylight
25 Nov - 12:11:59 10° SW 12:28:05 86° NW 12:36:21 10° NE daylight
25 Nov - 14:42:39 10° W 14:49:25 21° NW 14:54:09 10° NNE daylight
25 Nov - 19:35:08 10° NNE 19:35:52 10° NNE 19:36:36 10° NE visible
25 Nov - 21:50:52 10° NW 21:56:16 78° NE 22:05:40 10° ESE night (unlit)
26 Nov - 00:11:52 10° W 00:18:41 27° SSW 00:29:36 10° SSE visible
26 Nov - 07:43:29 10° SSW 07:57:05 18° SSE 08:08:17 10° ESE daylight
26 Nov - 10:06:37 10° SW 10:25:32 47° SSE 10:36:36 10° ENE daylight
26 Nov - 12:34:04 10° WSW 12:49:14 65° NW 12:57:10 10° NE daylight
26 Nov - 15:06:31 10° WNW 15:10:44 14° NNW 15:14:06 10° N daylight
26 Nov - 19:53:58 10° N 19:57:05 17° NNE 20:00:48 10° ENE visible
26 Nov - 22:11:48 10° WNW 22:17:22 69° SSW 22:27:08 10° SE night (unlit)
27 Nov - 00:34:28 10° WSW 00:40:42 19° SSW 00:49:40 10° SSE visible
27 Nov - 08:03:28 10° SSW 08:20:00 24° SSE 08:32:36 10° ESE daylight
27 Nov - 10:27:43 10° SW 10:47:19 61° SE 10:58:10 10° ENE daylight
27 Nov - 12:56:35 10° WSW 13:10:19 48° NW 13:17:50 10° NE daylight
27 Nov - 20:14:06 10° NNW 20:18:06 28° NE 20:23:29 10° E visible
27 Nov - 22:33:02 10° WNW 22:38:39 44° SSW 22:48:12 10° SE night (unlit)
28 Nov - 00:58:17 10° SW 01:02:58 13° SSW 01:08:52 10° S visible
28 Nov - 06:04:57 10° S 06:10:53 11° SSE 06:16:41 10° SE visible
28 Nov - 08:23:48 10° SSW 08:42:32 32° SSE 08:55:50 10° E daylight
28 Nov - 10:49:09 10° SW 11:08:52 78° SE 11:19:25 10° ENE daylight
28 Nov - 13:19:34 10° W 13:31:25 35° NW 13:38:23 10° NNE daylight
28 Nov - 20:34:33 10° NW 20:39:03 49° NE 20:45:34 10° ESE visible
28 Nov - 22:54:41 10° W 23:00:10 29° SSW 23:08:50 10° SSE night (unlit)
29 Nov - 06:23:04 10° S 06:34:39 15° SSE 06:45:26 10° SE daylight
29 Nov - 08:44:24 10° SSW 09:04:47 41° SSE 09:18:19 10° E daylight
29 Nov - 11:10:57 10° SW 11:30:15 84° NW 11:40:27 10° NE daylight
29 Nov - 13:43:00 10° W 13:52:38 25° NNW 13:58:49 10° NNE daylight
29 Nov - 20:55:18 10° NW 20:59:59 84° NE 21:07:11 10° ESE visible
29 Nov - 23:16:55 10° WSW 23:21:52 20° SSW 23:28:57 10° SSE visible
30 Nov - 06:42:36 10° SSW 06:57:54 21° SSE 07:11:18 10° ESE daylight
30 Nov - 09:05:16 10° SW 09:26:46 52° SE 09:40:16 10° ENE daylight
30 Nov - 11:33:10 10° WSW 11:51:31 66° NW 12:01:18 10° NE daylight
30 Nov - 14:06:50 10° WNW 14:14:03 19° NNW 14:19:09 10° NNE daylight
30 Nov - 18:58:00 10° NNW 19:00:53 16° NNE 19:03:55 10° ENE visible
30 Nov - 21:16:20 10° WNW 21:21:03 57° SSW 21:28:22 10° SE night (unlit)
30 Nov - 23:40:20 10° SW 23:43:48 13° SSW 23:48:06 10° S visible
